Change the Weather History Date:

Sunday, March 17, 2013

  Actual Average Record
Temperature  
Mean Temperature 81 °F -  
Max Temperature 87 °F 85 °F 91 °F (2006)
Min Temperature 75 °F 76 °F 71 °F (2011)
Cooling Degree Days 16    
Growing Degree Days 31 (Base 50)    
Moisture  
Dew Point 70 °F    
Average Humidity 71    
Maximum Humidity 83    
Minimum Humidity 59    
Precipitation  
Precipitation 0.00 in - - ()
Sea Level Pressure  
Sea Level Pressure 29.98 in    
Wind  
Wind Speed 11 mph ()    
Max Wind Speed 24 mph    
Max Gust Speed -    
Visibility 7.8 miles    
Events      
Averages and records for this station are not official NWS values.
T = Trace of Precipitation, MM = Missing Value Source: Averaged Metar Reports

Daily Weather History Graph

Daily Weather History Graph

Search for Another Location

Airport or City:

Trip Planner

Search our weather history database for the weather conditions in past years. The results will help you decide how hot, cold, wet, or windy it might be!

Date:

Astronomy

Mar. 17, 2013 Rise Set
Actual Time 6:13 AM EST 6:17 PM EST
Civil Twilight 5:51 AM EST 6:39 PM EST
Nautical Twilight 5:26 AM EST 7:04 PM EST
Astronomical Twilight 5:01 AM EST 7:29 PM EST
Moon 10:10 AM EST (3/17) 11:29 PM EST (3/17)
Length of Visible Light 12h 47m
Length of Day
12h 04m
Waxing Crescent, 31% of the Moon is Illuminated
Mar 17
Waxing Crescent
Mar 19
First Quarter
Mar 27
Full
Apr 2
Last Quarter
Apr 10
New

Hourly Weather History & Observations

Time (EST) Temp. Heat Index Dew Point Humidity Pressure Visibility Wind Dir Wind Speed Gust Speed Precip Events Conditions
12:00 AM 77.0 °F - 69.8 °F 78% 30.01 in 6.2 mi North 9.2 mph - N/A   Mostly Cloudy
1:00 AM 77 °F - 70 °F 74% 29.99 in 11 mi North 10.4 mph - -   Haze
1:00 AM 77.0 °F - 69.8 °F 78% 29.98 in 6.2 mi North 10.4 mph - N/A   Mostly Cloudy
2:00 AM 77.0 °F - 68.0 °F 74% 29.95 in 6.2 mi NNW 8.1 mph - N/A   Mostly Cloudy
3:00 AM 77.0 °F - 68.0 °F 74% 29.95 in 6.2 mi North 9.2 mph - N/A   Mostly Cloudy
4:00 AM 76 °F - 69 °F 73% 29.97 in 12 mi North 11.5 mph - -   Haze
4:00 AM 77.0 °F - 69.8 °F 78% 29.95 in 6.2 mi North 11.5 mph - N/A   Mostly Cloudy
5:00 AM 75.2 °F - 68.0 °F 78% 29.98 in 6.2 mi North 11.5 mph - N/A   Mostly Cloudy
6:00 AM 75.2 °F - 68.0 °F 78% 29.98 in 6.2 mi North 10.4 mph - N/A   Partly Cloudy
7:00 AM 76 °F - 69 °F 72% 30.01 in 17 mi North 9.2 mph - -   Haze
7:00 AM 77.0 °F - 68.0 °F 74% 30.01 in 6.2 mi North 9.2 mph - N/A   Scattered Clouds
8:00 AM 75.2 °F - 69.8 °F 83% 29.98 in 6.2 mi NNW 5.8 mph - N/A   Partly Cloudy
9:00 AM 82.4 °F 86.3 °F 69.8 °F 66% 30.04 in 6.2 mi NNE 3.5 mph - N/A   Scattered Clouds
10:00 AM 81 °F - 69 °F 59% 30.06 in 16 mi SSW 6.9 mph - -   Haze
10:00 AM 78.8 °F - 69.8 °F 74% 30.01 in 6.2 mi SSW 6.9 mph - N/A   Partly Cloudy
11:00 AM 82.4 °F 86.3 °F 69.8 °F 66% 30.04 in 6.2 mi SW 6.9 mph - N/A   Partly Cloudy
12:00 PM 82.4 °F 87.2 °F 71.6 °F 70% 30.01 in 6.2 mi SE 24.2 mph - N/A   Scattered Clouds
1:00 PM 83 °F - 74 °F 68% 29.99 in 16 mi SE 23.0 mph - -   Mostly Cloudy
1:00 PM 84.2 °F 89.6 °F 71.6 °F 66% 29.98 in 6.2 mi SE 23.0 mph - N/A   Scattered Clouds
2:00 PM 86.0 °F 93.4 °F 73.4 °F 66% 29.95 in 6.2 mi SE 23.0 mph - N/A   Scattered Clouds
3:00 PM 84.2 °F 89.6 °F 71.6 °F 66% 29.95 in 6.2 mi SE 23.0 mph - N/A   Mostly Cloudy
4:00 PM 81 °F - 71 °F 64% 29.95 in 6 mi SE 21.9 mph - -   Mostly Cloudy
4:00 PM 80.6 °F 84.6 °F 71.6 °F 74% 29.95 in 6.2 mi SE 21.9 mph - N/A   Mostly Cloudy
5:00 PM 84.2 °F 88.4 °F 69.8 °F 62% 29.92 in 6.2 mi SSE 8.1 mph - N/A   Mostly Cloudy
6:00 PM 75.2 °F - 69.8 °F 83% 29.92 in 6.2 mi East 8.1 mph - N/A   Scattered Clouds
7:00 PM 81 °F - 71 °F 63% 29.96 in 11 mi SE 17.3 mph - -   Haze
7:00 PM 80.6 °F 83.9 °F 69.8 °F 70% 29.95 in 6.2 mi SE 17.3 mph - N/A   Partly Cloudy
8:00 PM 78.8 °F - 69.8 °F 74% 29.98 in 6.2 mi ESE 12.7 mph - N/A   Partly Cloudy
9:00 PM 78.8 °F - 68.0 °F 69% 29.98 in 6.2 mi SE 13.8 mph - N/A   Partly Cloudy
10:00 PM 79 °F - 69 °F 64% 30.01 in 11 mi ESE 12.7 mph - -   Haze
10:00 PM 78.8 °F - 69.8 °F 74% 30.01 in 6.2 mi ESE 12.7 mph - N/A   Partly Cloudy
11:00 PM 78.8 °F - 69.8 °F 74% 30.01 in 6.2 mi East 10.4 mph - N/A   Partly Cloudy